Content
SEND FEEDBACK

Daily
Averages
Monthly
Summary
Mexico

COZUMEL, QUINTANA ROO


Home > North America > Mexico > Quintana Roo
Elevation: 15 feet     Latitude: 20 31N     Longitude: 086 56W

WEATHER
 
SELECT A DAY
Number of Records: 127,219;   Date Range: 1/1/95 - 10/20/14
 
SHARE

PRINT THIS DATA

[ ← Previous Day ]
WEATHER ALMANAC - APRIL 10, 2014
[ Next Day → ]
[ °C ]   °F
Weather ElementAverageHighLow
Temperature71 °F78.8 °F (1:42 pm)64.4 °F (11:54 pm)
Dewpoint60.2 °F64.4 °F (8:41 am)57.2 °F (1:40 am)
Humidity69.8 %83 % (6:49 am)50 % (11:41 am)
Barometer30.14 in30.24 in (9:45 am)30.04 in (5:00 am)
Wind Speed8 mph13.8 mph (2:44 pm)
Wind Gust19.6 mph (3:40 pm)
Weather ElementAverage
Visibility7.6 mi
Wind DirectionSSE (148.7 °)

Weather ElementTotal
Precipitation---
Cooling Degree Days6.6 (Base 65)
Growing Degree Days21.6 (Base 50)
Averaged from 23 records on April 10, 2014
WEATHER CONDITIONS BREAKOUT
WIND DIRECTION BREAKOUT
WEATHER BY HOUR - APRIL 10, 2014
[ °C ]   °F
Local TimeTemperatureDewpointHumidityBarometerVisibilityWind DirectionWind SpeedGust SpeedPrecipitationEventsConditions
1:40 AM66.2 °F57.2 °F73 %30.16 in7.0 miNorth (360°)11.5 mphClear
2:41 AM66.2 °F59.0 °F78 %30.15 in7.0 miNorth (360°)8.1 mphClear
3:40 AM66.2 °F59.0 °F78 %30.17 in7.0 miNorth (10°)8.1 mphPartly Cloudy
5:00 AM66.2 °F59.0 °F78 %30.04 in7.0 miNNE (20°)4.6 mphPartly Cloudy
5:47 AM66.2 °F57.2 °F73 %30.15 in7.0 miNorth (10°)6.9 mphPartly Cloudy
6:49 AM66.2 °F60.8 °F83 %30.15 in7.0 miNorth (360°)5.8 mphClear
7:43 AM68.0 °F62.6 °F83 %30.18 in8.0 miNorth (360°)4.6 mphClear
8:41 AM69.8 °F64.4 °F83 %30.20 in8.0 miNorth (10°)6.9 mphClear
9:45 AM73.4 °F64.4 °F73 %30.24 in8.0 miNNW (340°)8.1 mphScattered Clouds
10:45 AM77.0 °F59.0 °F54 %30.20 in8.0 miNorth (10°)6.9 mphScattered Clouds
11:41 AM77.0 °F57.2 °F50 %30.19 in8.0 miNorth (10°)8.1 mphScattered Clouds
12:42 PM77.0 °F60.8 °F57 %30.15 in8.0 miNorth (350°)10.4 mphScattered Clouds
1:42 PM78.8 °F60.8 °F54 %30.14 in8.0 miNorth (360°)11.5 mphScattered Clouds
2:44 PM78.8 °F60.8 °F54 %30.12 in8.0 miENE (60°)13.8 mphScattered Clouds
3:40 PM77.0 °F60.8 °F57 %30.13 in8.0 miEast (80°)8.1 mph19.6 mphScattered Clouds
4:40 PM77.0 °F60.8 °F57 %30.08 in8.0 miENE (60°)13.8 mphPartly Cloudy
5:40 PM75.2 °F60.8 °F61 %30.09 in8.0 miEast (80°)8.1 mphPartly Cloudy
6:45 PM71.6 °F60.8 °F69 %30.07 in8.0 miEast (90°)8.1 mphPartly Cloudy
7:40 PM69.8 °F60.8 °F73 %30.11 in8.0 miEast (90°)4.6 mphPartly Cloudy
8:40 PM68.0 °F60.8 °F78 %30.12 in8.0 miEast (100°)6.9 mphPartly Cloudy
9:44 PM66.2 °F59.0 °F78 %30.16 in7.0 miEast (100°)6.9 mphPartly Cloudy
10:46 PM66.2 °F59.0 °F78 %30.14 in7.0 miEast (100°)6.9 mphPartly Cloudy
11:54 PM64.4 °F59.0 °F83 %30.13 in7.0 miEast (100°)4.6 mphPartly Cloudy
Hourly data recorded from MMCZ, located miles away from Cozumel, Quintana Roo







STORIES FROM OUR PARTNERS